QPF
0.00 0.00 0.00 0.00 0.00 0.00 0.00 0.00 0.00 0.00 0.00 0.00 0.00 0.00 0.00 0.00 0.00 0.00 0.00 0.00 0.00 0.00 0.00 0.00 0.00 0.01 0.01 0.01 0.02 0.03 0.03 0.05 0.05 0.03 0.00 0.00 0.00 0.00 0.00 0.01 0.04 0.05 0.06
0.00 0.00 0.00 0.00 0.00 0.00 0.00 0.00 0.00 0.00 0.00 0.00 0.00 0.00 0.00 0.00 0.00 0.00 0.00 0.00 0.00 0.00 0.00 0.00 0.00 0.01 0.01 0.02 0.02 0.03 0.03 0.03 0.04 0.03 0.01 0.00 0.00 0.00 0.01 0.03 0.06 0.08 0.07
0.00 0.00 0.00 0.00 0.00 0.00 0.00 0.00 0.00 0.00 0.00 0.00 0.00 0.00 0.00 0.00 0.00 0.00 0.00 0.00 0.00 0.00 0.00 0.00 0.00 0.01 0.01 0.02 0.02 0.02 0.02 0.02 0.03 0.04 0.02 0.01 0.00 0.01 0.03 0.06 0.06 0.07 0.06
0.00 0.00 0.00 0.00 0.00 0.00 0.00 0.00 0.00 0.00 0.00 0.00 0.00 0.00 0.00 0.00 0.00 0.00 0.00 0.00 0.00 0.00 0.00 0.00 0.01 0.01 0.02 0.02 0.01 0.01 0.01 0.02 0.02 0.03 0.03 0.01 0.01 0.03 0.06 0.09 0.08 0.05 0.04
0.00 0.00 0.00 0.00 0.00 0.00 0.00 0.00 0.00 0.00 0.00 0.00 0.00 0.00 0.00 0.00 0.00 0.00 0.00 0.00 0.00 0.00 0.00 0.01 0.01 0.02 0.03 0.02 0.01 0.01 0.02 0.04 0.05 0.04 0.04 0.03 0.03 0.05 0.06 0.06 0.05 0.04 0.02
0.00 0.00 0.00 0.00 0.00 0.00 0.00 0.00 0.00 0.00 0.00 0.00 0.00 0.00 0.00 0.00 0.00 0.00 0.00 0.00 0.00 0.00 0.00 0.00 0.00 0.01 0.00 0.00 0.01 0.01 0.04 0.07 0.08 0.07 0.05 0.04 0.04 0.05 0.05 0.05 0.04 0.03 0.04
0.00 0.00 0.00 0.00 0.00 0.00 0.00 0.00 0.00 0.00 0.00 0.00 0.00 0.00 0.00 0.00 0.00 0.00 0.00 0.00 0.00 0.00 0.00 0.00 0.01 0.00 0.00 0.00 0.00 0.01 0.04 0.08 0.10 0.08 0.05 0.03 0.04 0.04 0.05 0.05 0.04 0.03 0.05
0.00 0.00 0.00 0.00 0.00 0.00 0.00 0.00 0.00 0.00 0.00 0.00 0.00 0.00 0.00 0.00 0.00 0.00 0.00 0.00 0.00 0.00 0.00 0.00 0.00 0.00 0.00 0.00 0.01 0.02 0.05 0.07 0.06 0.04 0.03 0.03 0.04 0.04 0.04 0.03 0.02 0.03 0.03
0.00 0.00 0.00 0.00 0.00 0.00 0.00 0.00 0.00 0.00 0.00 0.00 0.00 0.00 0.00 0.00 0.00 0.00 0.00 0.00 0.00 0.00 0.00 0.00 0.00 0.00 0.00 0.01 0.02 0.05 0.09 0.11 0.07 0.04 0.05 0.07 0.08 0.07 0.04 0.03 0.03 0.03 0.02
0.00 0.00 0.00 0.00 0.00 0.00 0.00 0.00 0.00 0.00 0.00 0.00 0.00 0.00 0.00 0.00 0.00 0.00 0.00 0.00 0.00 0.00 0.00 0.00 0.00 0.01 0.01 0.02 0.04 0.09 0.15 0.17 0.10 0.05 0.07 0.10 0.09 0.08 0.08 0.07 0.05 0.04 0.03
0.00 0.00 0.00 0.00 0.00 0.00 0.00 0.00 0.00 0.00 0.00 0.00 0.00 0.00 0.00 0.00 0.00 0.00 0.00 0.00 0.00 0.00 0.00 0.01 0.01 0.03 0.02 0.04 0.09 0.14 0.20 0.22 0.14 0.07 0.05 0.07 0.07 0.06 0.07 0.07 0.05 0.04 0.02
0.00 0.00 0.00 0.00 0.00 0.00 0.00 0.00 0.00 0.00 0.00 0.00 0.00 0.00 0.00 0.00 0.00 0.00 0.00 0.00 0.01 0.01 0.02 0.03 0.04 0.04 0.04 0.08 0.14 0.19 0.24 0.24 0.15 0.07 0.03 0.02 0.03 0.04 0.05 0.05 0.03 0.01 0.00
0.00 0.00 0.00 0.00 0.00 0.00 0.00 0.00 0.00 0.00 0.00 0.00 0.00 0.00 0.00 0.00 0.00 0.00 0.00 0.00 0.01 0.02 0.04 0.05 0.05 0.04 0.07 0.13 0.19 0.23 0.25 0.23 0.15 0.08 0.04 0.03 0.02 0.02 0.02 0.02 0.01 0.00 0.00
0.00 0.00 0.00 0.00 0.00 0.00 0.00 0.00 0.00 0.00 0.00 0.00 0.00 0.00 0.00 0.00 0.00 0.00 0.00 0.00 0.00 0.01 0.02 0.03 0.04 0.06 0.11 0.18 0.21 0.23 0.24 0.23 0.17 0.10 0.06 0.04 0.03 0.03 0.02 0.01 0.01 0.01 0.01
0.00 0.00 0.00 0.00 0.00 0.00 0.00 0.00 0.00 0.00 0.00 0.00 0.00 0.00 0.00 0.00 0.00 0.00 0.00 0.01 0.01 0.02 0.02 0.03 0.04 0.08 0.14 0.19 0.21 0.21 0.21 0.21 0.17 0.10 0.06 0.05 0.05 0.03 0.03 0.02 0.02 0.02 0.02
0.00 0.00 0.00 0.00 0.00 0.00 0.00 0.00 0.00 0.00 0.00 0.00 0.00 0.00 0.00 0.00 0.00 0.00 0.00 0.01 0.02 0.03 0.03 0.04 0.07 0.12 0.17 0.20 0.22 0.21 0.20 0.18 0.15 0.10 0.07 0.06 0.05 0.04 0.04 0.03 0.02 0.02 0.02
0.00 0.00 0.00 0.00 0.00 0.00 0.00 0.00 0.00 0.00 0.00 0.00 0.00 0.00 0.00 0.00 0.01 0.01 0.00 0.01 0.02 0.02 0.03 0.06 0.10 0.14 0.17 0.18 0.19 0.19 0.18 0.16 0.13 0.10 0.07 0.05 0.05 0.04 0.03 0.03 0.02 0.01 0.01
0.00 0.00 0.00 0.00 0.00 0.00 0.00 0.00 0.00 0.00 0.00 0.00 0.00 0.00 0.00 0.01 0.01 0.01 0.01 0.01 0.01 0.02 0.04 0.08 0.11 0.13 0.14 0.15 0.15 0.16 0.16 0.14 0.11 0.08 0.07 0.06 0.04 0.03 0.03 0.02 0.01 0.01 0.00
0.00 0.00 0.00 0.00 0.00 0.00 0.00 0.00 0.00 0.00 0.00 0.00 0.01 0.01 0.01 0.02 0.02 0.02 0.01 0.01 0.02 0.03 0.05 0.08 0.11 0.12 0.11 0.11 0.11 0.11 0.11 0.10 0.08 0.07 0.06 0.05 0.04 0.03 0.02 0.01 0.01 0.00 0.00
0.00 0.00 0.00 0.00 0.00 0.00 0.00 0.00 0.00 0.00 0.00 0.01 0.01 0.02 0.02 0.03 0.03 0.03 0.02 0.01 0.02 0.03 0.05 0.08 0.10 0.10 0.08 0.07 0.06 0.06 0.05 0.05 0.05 0.04 0.04 0.04 0.03 0.02 0.01 0.01 0.01 0.01 0.01
0.00 0.00 0.00 0.00 0.00 0.00 0.00 0.00 0.00 0.00 0.00 0.00 0.01 0.02 0.04 0.05 0.06 0.05 0.04 0.02 0.02 0.02 0.03 0.05 0.07 0.08 0.07 0.05 0.04 0.03 0.03 0.03 0.03 0.03 0.03 0.02 0.02 0.02 0.01 0.01 0.01 0.00 0.00
0.00 0.00 0.00 0.00 0.00 0.00 0.00 0.00 0.00 0.00 0.00 0.00 0.01 0.01 0.04 0.04 0.06 0.07 0.06 0.05 0.03 0.02 0.02 0.04 0.05 0.07 0.08 0.07 0.06 0.04 0.03 0.03 0.04 0.03 0.03 0.02 0.02 0.02 0.01 0.00 0.00 0.00 0.00
0.00 0.00 0.00 0.00 0.00 0.00 0.00 0.00 0.00 0.00 0.00 0.00 0.00 0.01 0.02 0.03 0.05 0.08 0.08 0.07 0.06 0.04 0.03 0.03 0.05 0.07 0.08 0.07 0.07 0.06 0.05 0.04 0.03 0.03 0.03 0.02 0.02 0.01 0.01 0.00 0.00 0.00 0.00
0.00 0.00 0.00 0.00 0.00 0.00 0.00 0.00 0.00 0.00 0.00 0.00 0.00 0.01 0.01 0.02 0.03 0.06 0.07 0.08 0.08 0.07 0.06 0.05 0.05 0.06 0.06 0.06 0.05 0.05 0.05 0.04 0.03 0.02 0.02 0.01 0.01 0.01 0.00 0.00 0.00 0.00 0.00
0.00 0.00 0.00 0.00 0.00 0.00 0.00 0.00 0.00 0.00 0.00 0.00 0.00 0.00 0.01 0.01 0.02 0.03 0.05 0.06 0.07 0.07 0.07 0.07 0.07 0.06 0.05 0.04 0.04 0.03 0.04 0.04 0.03 0.02 0.02 0.01 0.01 0.01 0.00 0.00 0.00 0.00 0.00
0.00 0.00 0.00 0.00 0.00 0.00 0.00 0.00 0.00 0.00 0.00 0.00 0.00 0.00 0.00 0.01 0.01 0.02 0.03 0.03 0.03 0.04 0.06 0.07 0.08 0.05 0.04 0.03 0.03 0.03 0.03 0.02 0.02 0.02 0.01 0.01 0.01 0.01 0.00 0.00 0.00 0.00 0.00
MSLP
1021.11 1021.24 1021.34 1021.39 1021.36 1021.24 1021.05 1020.79 1020.50 1020.21 1019.93 1019.70 1019.51 1019.35 1019.21 1019.07 1018.90 1018.69 1018.41 1018.06 1017.65 1017.18 1016.66 1016.11 1015.55 1014.99 1014.45 1013.93 1013.42 1012.92 1012.43 1011.93 1011.42 1010.90 1010.38 1009.86 1009.38 1008.96 1008.62 1008.39 1008.27 1008.26 1008.32
1021.19 1021.27 1021.31 1021.30 1021.21 1021.06 1020.84 1020.58 1020.29 1020.01 1019.74 1019.52 1019.33 1019.18 1019.03 1018.88 1018.70 1018.46 1018.15 1017.77 1017.31 1016.80 1016.23 1015.64 1015.04 1014.45 1013.88 1013.34 1012.82 1012.31 1011.81 1011.31 1010.80 1010.29 1009.78 1009.30 1008.87 1008.51 1008.26 1008.12 1008.08 1008.14 1008.24
1021.26 1021.28 1021.25 1021.16 1021.02 1020.82 1020.57 1020.29 1020.01 1019.73 1019.49 1019.28 1019.11 1018.97 1018.83 1018.68 1018.49 1018.23 1017.90 1017.50 1017.01 1016.46 1015.86 1015.23 1014.60 1013.97 1013.37 1012.79 1012.24 1011.70 1011.18 1010.66 1010.14 1009.64 1009.15 1008.72 1008.36 1008.09 1007.94 1007.90 1007.96 1008.08 1008.21
1021.30 1021.24 1021.13 1020.97 1020.76 1020.51 1020.23 1019.94 1019.66 1019.41 1019.20 1019.02 1018.88 1018.76 1018.64 1018.49 1018.29 1018.02 1017.68 1017.25 1016.74 1016.16 1015.54 1014.88 1014.21 1013.54 1012.90 1012.27 1011.66 1011.08 1010.51 1009.96 1009.42 1008.91 1008.46 1008.08 1007.81 1007.65 1007.62 1007.70 1007.87 1008.06 1008.22
1021.27 1021.13 1020.94 1020.70 1020.43 1020.13 1019.83 1019.55 1019.29 1019.08 1018.91 1018.78 1018.67 1018.58 1018.47 1018.33 1018.12 1017.84 1017.48 1017.03 1016.49 1015.89 1015.23 1014.54 1013.83 1013.12 1012.42 1011.73 1011.06 1010.41 1009.78 1009.18 1008.61 1008.11 1007.69 1007.38 1007.21 1007.17 1007.27 1007.48 1007.77 1008.05 1008.24
1021.13 1020.92 1020.66 1020.35 1020.03 1019.70 1019.40 1019.14 1018.92 1018.76 1018.65 1018.57 1018.51 1018.45 1018.35 1018.21 1017.99 1017.69 1017.29 1016.81 1016.24 1015.61 1014.91 1014.18 1013.43 1012.67 1011.90 1011.14 1010.40 1009.68 1008.99 1008.34 1007.76 1007.27 1006.89 1006.66 1006.58 1006.67 1006.91 1007.26 1007.66 1008.04 1008.30
1020.88 1020.61 1020.28 1019.93 1019.58 1019.25 1018.97 1018.75 1018.59 1018.50 1018.45 1018.44 1018.42 1018.38 1018.29 1018.13 1017.88 1017.54 1017.10 1016.57 1015.96 1015.28 1014.55 1013.77 1012.97 1012.16 1011.33 1010.51 1009.71 1008.93 1008.19 1007.52 1006.93 1006.46 1006.14 1005.99 1006.02 1006.23 1006.60 1007.07 1007.59 1008.07 1008.42
1020.54 1020.22 1019.86 1019.49 1019.14 1018.83 1018.60 1018.44 1018.36 1018.34 1018.37 1018.40 1018.42 1018.39 1018.29 1018.10 1017.80 1017.40 1016.90 1016.31 1015.64 1014.91 1014.13 1013.31 1012.46 1011.60 1010.73 1009.87 1009.02 1008.22 1007.47 1006.80 1006.24 1005.82 1005.56 1005.50 1005.64 1005.96 1006.43 1007.02 1007.63 1008.20 1008.63
1020.17 1019.83 1019.46 1019.10 1018.78 1018.53 1018.36 1018.28 1018.28 1018.33 1018.42 1018.49 1018.53 1018.49 1018.35 1018.11 1017.74 1017.27 1016.69 1016.03 1015.29 1014.50 1013.67 1012.80 1011.92 1011.03 1010.14 1009.27 1008.42 1007.63 1006.91 1006.28 1005.79 1005.45 1005.29 1005.32 1005.55 1005.96 1006.52 1007.17 1007.85 1008.47 1008.96
1019.85 1019.51 1019.16 1018.83 1018.57 1018.39 1018.30 1018.30 1018.37 1018.49 1018.62 1018.71 1018.74 1018.66 1018.48 1018.16 1017.71 1017.15 1016.49 1015.75 1014.94 1014.09 1013.21 1012.31 1011.41 1010.51 1009.63 1008.77 1007.97 1007.23 1006.58 1006.06 1005.66 1005.43 1005.38 1005.52 1005.83 1006.31 1006.90 1007.58 1008.27 1008.91 1009.43
1019.65 1019.33 1019.03 1018.76 1018.57 1018.47 1018.46 1018.53 1018.66 1018.82 1018.96 1019.05 1019.04 1018.91 1018.65 1018.24 1017.71 1017.06 1016.32 1015.50 1014.63 1013.73 1012.81 1011.89 1010.98 1010.09 1009.24 1008.44 1007.71 1007.07 1006.54 1006.14 1005.89 1005.79 1005.86 1006.10 1006.48 1006.99 1007.59 1008.24 1008.90 1009.50 1010.00
1019.61 1019.34 1019.10 1018.92 1018.81 1018.78 1018.84 1018.97 1019.13 1019.29 1019.42 1019.46 1019.39 1019.19 1018.84 1018.35 1017.73 1017.00 1016.18 1015.30 1014.38 1013.44 1012.50 1011.58 1010.68 1009.82 1009.02 1008.30 1007.67 1007.15 1006.76 1006.52 1006.42 1006.47 1006.67 1007.00 1007.44 1007.96 1008.53 1009.12 1009.68 1010.20 1010.63
1019.74 1019.55 1019.39 1019.29 1019.26 1019.30 1019.41 1019.56 1019.73 1019.86 1019.94 1019.92 1019.77 1019.47 1019.03 1018.46 1017.76 1016.97 1016.10 1015.18 1014.23 1013.27 1012.33 1011.41 1010.54 1009.72 1008.98 1008.35 1007.83 1007.45 1007.21 1007.12 1007.18 1007.37 1007.69 1008.10 1008.57 1009.08 1009.60 1010.10 1010.55 1010.95 1011.27
1020.03 1019.92 1019.85 1019.83 1019.87 1019.96 1020.10 1020.25 1020.38 1020.46 1020.46 1020.35 1020.10 1019.71 1019.18 1018.54 1017.78 1016.94 1016.05 1015.12 1014.17 1013.23 1012.30 1011.41 1010.57 1009.81 1009.14 1008.59 1008.17 1007.91 1007.80 1007.85 1008.05 1008.37 1008.78 1009.26 1009.75 1010.24 1010.69 1011.09 1011.42 1011.69 1011.89
1020.42 1020.40 1020.42 1020.47 1020.57 1020.70 1020.83 1020.95 1021.02 1021.02 1020.92 1020.70 1020.35 1019.87 1019.27 1018.56 1017.78 1016.93 1016.05 1015.14 1014.22 1013.31 1012.43 1011.58 1010.79 1010.08 1009.47 1009.00 1008.66 1008.50 1008.49 1008.65 1008.95 1009.35 1009.84 1010.35 1010.85 1011.31 1011.70 1012.00 1012.23 1012.38 1012.48
1020.86 1020.93 1021.02 1021.14 1021.28 1021.42 1021.53 1021.59 1021.58 1021.49 1021.27 1020.94 1020.49 1019.93 1019.28 1018.54 1017.76 1016.93 1016.08 1015.23 1014.38 1013.53 1012.71 1011.93 1011.19 1010.54 1009.98 1009.56 1009.28 1009.18 1009.23 1009.45 1009.80 1010.26 1010.77 1011.30 1011.79 1012.22 1012.55 1012.79 1012.94 1013.01 1013.05
1021.31 1021.46 1021.62 1021.79 1021.95 1022.07 1022.15 1022.14 1022.05 1021.84 1021.52 1021.09 1020.55 1019.93 1019.24 1018.50 1017.74 1016.96 1016.18 1015.41 1014.64 1013.89 1013.14 1012.43 1011.76 1011.16 1010.65 1010.26 1010.02 1009.93 1010.01 1010.24 1010.60 1011.06 1011.57 1012.08 1012.55 1012.95 1013.25 1013.45 1013.56 1013.60 1013.61
1021.76 1021.97 1022.18 1022.38 1022.54 1022.65 1022.67 1022.59 1022.41 1022.10 1021.69 1021.17 1020.57 1019.90 1019.20 1018.48 1017.76 1017.06 1016.36 1015.69 1015.02 1014.37 1013.72 1013.09 1012.49 1011.94 1011.46 1011.10 1010.86 1010.77 1010.83 1011.04 1011.37 1011.78 1012.25 1012.72 1013.16 1013.53 1013.81 1014.00 1014.11 1014.17 1014.20
1022.19 1022.45 1022.70 1022.91 1023.07 1023.14 1023.11 1022.97 1022.70 1022.32 1021.83 1021.25 1020.60 1019.92 1019.23 1018.55 1017.89 1017.26 1016.66 1016.09 1015.53 1014.98 1014.42 1013.87 1013.34 1012.84 1012.40 1012.04 1011.80 1011.68 1011.70 1011.85 1012.11 1012.47 1012.87 1013.28 1013.67 1014.01 1014.28 1014.48 1014.62 1014.73 1014.82
1022.63 1022.92 1023.18 1023.40 1023.54 1023.58 1023.50 1023.30 1022.98 1022.54 1022.00 1021.39 1020.73 1020.06 1019.39 1018.76 1018.17 1017.62 1017.11 1016.63 1016.16 1015.70 1015.23 1014.75 1014.28 1013.82 1013.41 1013.06 1012.79 1012.64 1012.60 1012.68 1012.87 1013.13 1013.45 1013.79 1014.13 1014.44 1014.70 1014.92 1015.11 1015.28 1015.46
1023.09 1023.39 1023.65 1023.85 1023.97 1023.98 1023.87 1023.64 1023.28 1022.82 1022.27 1021.66 1021.01 1020.37 1019.75 1019.17 1018.63 1018.15 1017.72 1017.31 1016.91 1016.52 1016.11 1015.69 1015.26 1014.83 1014.43 1014.08 1013.80 1013.61 1013.51 1013.51 1013.61 1013.79 1014.02 1014.29 1014.57 1014.84 1015.10 1015.34 1015.58 1015.81 1016.07
1023.56 1023.85 1024.09 1024.27 1024.37 1024.36 1024.23 1023.99 1023.63 1023.18 1022.65 1022.07 1021.47 1020.88 1020.31 1019.78 1019.30 1018.87 1018.48 1018.11 1017.75 1017.39 1017.02 1016.62 1016.22 1015.81 1015.42 1015.06 1014.76 1014.52 1014.37 1014.31 1014.33 1014.42 1014.57 1014.76 1014.98 1015.22 1015.47 1015.73 1016.00 1016.30 1016.62
1024.03 1024.29 1024.51 1024.66 1024.74 1024.72 1024.60 1024.37 1024.05 1023.64 1023.17 1022.65 1022.11 1021.58 1021.07 1020.59 1020.15 1019.75 1019.37 1019.01 1018.66 1018.29 1017.91 1017.52 1017.11 1016.70 1016.30 1015.93 1015.61 1015.34 1015.15 1015.02 1014.98 1015.00 1015.08 1015.21 1015.38 1015.58 1015.82 1016.08 1016.38 1016.71 1017.08
1024.46 1024.68 1024.87 1025.00 1025.07 1025.06 1024.96 1024.78 1024.51 1024.17 1023.78 1023.35 1022.89 1022.44 1021.99 1021.55 1021.14 1020.74 1020.35 1019.97 1019.59 1019.19 1018.78 1018.35 1017.92 1017.49 1017.07 1016.68 1016.33 1016.04 1015.81 1015.64 1015.54 1015.51 1015.53 1015.61 1015.74 1015.91 1016.12 1016.38 1016.69 1017.04 1017.44
1024.83 1025.02 1025.17 1025.29 1025.36 1025.37 1025.31 1025.18 1025.00 1024.75 1024.46 1024.13 1023.76 1023.38 1022.99 1022.60 1022.20 1021.79 1021.38 1020.96 1020.52 1020.07 1019.60 1019.13 1018.65 1018.19 1017.74 1017.32 1016.95 1016.63 1016.37 1016.17 1016.03 1015.96 1015.94 1015.98 1016.07 1016.21 1016.40 1016.65 1016.95 1017.30 1017.70
1025.14 1025.29 1025.42 1025.53 1025.61 1025.65 1025.65 1025.60 1025.50 1025.35 1025.16 1024.93 1024.66 1024.36 1024.02 1023.66 1023.27 1022.85 1022.41 1021.94 1021.45 1020.94 1020.42 1019.89 1019.36 1018.85 1018.37 1017.93 1017.53 1017.18 1016.90 1016.66 1016.50 1016.38 1016.33 1016.33 1016.39 1016.50 1016.67 1016.90 1017.18 1017.51 1017.89
Thickness
5574 5567 5559 5552 5545 5538 5531 5525 5519 5514 5509 5506 5502 5497 5492 5485 5479 5472 5465 5460 5456 5452 5449 5448 5447 5448 5448 5449 5450 5451 5452 5452 5458 5463 5463 5465 5467 5470 5473 5476 5478 5479 5480
5563 5556 5548 5541 5534 5527 5521 5515 5510 5506 5502 5499 5494 5489 5483 5476 5469 5462 5456 5451 5446 5443 5440 5439 5439 5441 5442 5443 5445 5447 5448 5449 5452 5458 5460 5462 5465 5468 5470 5472 5474 5475 5474
5553 5545 5537 5530 5523 5517 5512 5507 5503 5499 5495 5491 5486 5480 5474 5466 5459 5452 5445 5440 5437 5434 5432 5431 5432 5433 5435 5438 5440 5443 5445 5447 5449 5453 5459 5460 5463 5466 5468 5469 5469 5468 5468
5542 5535 5527 5520 5514 5509 5504 5500 5497 5493 5489 5483 5478 5472 5465 5457 5448 5441 5435 5431 5427 5426 5425 5424 5425 5426 5429 5433 5437 5439 5442 5445 5448 5452 5457 5460 5463 5465 5465 5465 5463 5461 5460
5532 5525 5517 5512 5506 5501 5497 5494 5490 5486 5482 5475 5469 5462 5454 5446 5438 5431 5425 5422 5419 5419 5418 5418 5419 5422 5426 5429 5433 5437 5440 5444 5449 5453 5458 5460 5463 5464 5464 5463 5460 5456 5455
5521 5515 5509 5504 5499 5495 5491 5487 5483 5478 5473 5466 5459 5452 5444 5436 5427 5421 5417 5413 5411 5411 5411 5412 5413 5417 5421 5424 5429 5435 5440 5446 5452 5456 5460 5462 5464 5464 5462 5460 5457 5455 5453
5513 5508 5503 5498 5493 5490 5486 5482 5476 5470 5463 5456 5449 5441 5432 5423 5416 5410 5407 5404 5402 5403 5404 5405 5409 5413 5416 5420 5427 5435 5443 5450 5456 5460 5463 5465 5464 5464 5461 5458 5455 5453 5449
5505 5501 5497 5493 5489 5485 5480 5475 5468 5461 5453 5445 5437 5429 5420 5411 5405 5401 5398 5395 5395 5397 5399 5400 5404 5408 5413 5417 5425 5435 5446 5455 5462 5467 5468 5466 5465 5463 5460 5457 5453 5448 5444
5500 5496 5493 5490 5486 5481 5475 5469 5461 5452 5443 5433 5425 5416 5407 5400 5395 5391 5390 5387 5389 5392 5395 5399 5401 5405 5410 5415 5424 5436 5447 5456 5463 5466 5466 5464 5462 5460 5457 5454 5451 5449 5444
5495 5493 5491 5488 5483 5477 5471 5463 5453 5442 5431 5421 5412 5404 5396 5390 5386 5383 5382 5381 5383 5386 5391 5396 5399 5403 5408 5416 5425 5435 5446 5454 5459 5460 5460 5458 5455 5453 5452 5453 5452 5450 5446
5493 5491 5488 5484 5479 5473 5464 5454 5442 5430 5418 5408 5399 5392 5386 5381 5379 5377 5376 5376 5377 5381 5387 5392 5396 5401 5408 5417 5426 5436 5445 5450 5453 5455 5453 5451 5449 5448 5447 5447 5447 5447 5446
5489 5487 5482 5478 5472 5464 5452 5440 5428 5417 5406 5396 5388 5381 5377 5374 5373 5372 5372 5373 5374 5378 5384 5388 5394 5401 5409 5419 5428 5437 5444 5448 5450 5450 5448 5446 5444 5442 5441 5442 5443 5443 5443
5484 5480 5474 5467 5458 5448 5437 5425 5414 5404 5395 5386 5379 5373 5371 5370 5369 5368 5369 5371 5374 5378 5382 5388 5395 5402 5411 5421 5429 5437 5442 5445 5446 5446 5444 5441 5438 5437 5436 5436 5437 5437 5437
5477 5471 5463 5453 5443 5434 5425 5415 5405 5395 5386 5379 5373 5369 5367 5367 5365 5365 5366 5368 5372 5377 5382 5389 5396 5404 5412 5420 5428 5434 5438 5440 5442 5441 5437 5434 5433 5432 5431 5432 5432 5433 5434
5469 5461 5452 5442 5431 5422 5413 5404 5397 5389 5382 5375 5369 5365 5364 5364 5361 5360 5361 5365 5369 5374 5381 5389 5396 5403 5411 5418 5425 5430 5433 5435 5436 5435 5433 5430 5429 5428 5427 5427 5428 5430 5432
5459 5451 5442 5432 5423 5414 5405 5398 5392 5385 5379 5372 5367 5363 5361 5359 5359 5360 5362 5366 5370 5375 5382 5388 5393 5400 5407 5414 5420 5425 5429 5431 5431 5431 5429 5428 5426 5425 5424 5423 5425 5427 5429
5449 5441 5433 5425 5417 5409 5401 5394 5386 5381 5376 5370 5366 5362 5360 5359 5359 5360 5363 5367 5372 5376 5382 5386 5391 5397 5403 5410 5416 5421 5424 5426 5427 5427 5427 5426 5424 5422 5422 5422 5423 5425 5427
5442 5434 5426 5417 5409 5402 5396 5389 5382 5376 5371 5367 5365 5362 5360 5359 5360 5361 5364 5368 5372 5377 5380 5385 5389 5394 5400 5406 5411 5416 5420 5422 5424 5425 5425 5424 5423 5422 5421 5422 5422 5424 5427
5436 5427 5419 5411 5404 5397 5391 5385 5378 5373 5368 5364 5362 5362 5360 5360 5360 5362 5364 5366 5369 5373 5378 5382 5387 5391 5397 5402 5407 5411 5415 5418 5420 5422 5422 5422 5421 5421 5421 5422 5423 5424 5427
5430 5423 5415 5407 5400 5393 5387 5381 5375 5370 5366 5363 5361 5358 5358 5359 5360 5361 5363 5365 5367 5370 5375 5380 5384 5389 5393 5398 5402 5406 5410 5413 5416 5418 5419 5419 5420 5420 5421 5422 5423 5424 5425
5426 5418 5411 5403 5396 5390 5384 5378 5372 5368 5364 5360 5357 5355 5354 5356 5357 5359 5362 5364 5366 5369 5373 5378 5383 5387 5391 5394 5398 5402 5406 5409 5411 5414 5416 5417 5419 5420 5421 5422 5423 5424 5425
5423 5414 5407 5400 5393 5386 5380 5375 5370 5366 5362 5359 5356 5354 5353 5354 5355 5357 5359 5363 5365 5368 5371 5376 5381 5385 5389 5392 5395 5399 5402 5405 5408 5411 5413 5415 5417 5419 5420 5422 5423 5424 5424
5421 5413 5404 5397 5389 5383 5377 5372 5368 5364 5360 5357 5355 5353 5353 5353 5353 5354 5356 5359 5362 5366 5369 5373 5377 5382 5386 5390 5393 5396 5399 5402 5406 5409 5412 5414 5416 5418 5420 5421 5422 5422 5422
5420 5411 5402 5394 5387 5380 5374 5370 5365 5362 5358 5355 5352 5351 5350 5350 5350 5351 5352 5355 5358 5361 5365 5368 5373 5377 5382 5387 5391 5395 5398 5401 5405 5407 5410 5412 5414 5416 5418 5419 5420 5421 5420
5419 5410 5401 5392 5385 5377 5372 5367 5363 5359 5356 5353 5350 5348 5347 5346 5347 5348 5349 5351 5354 5357 5361 5365 5369 5374 5379 5384 5389 5393 5397 5400 5403 5406 5408 5411 5412 5414 5416 5418 5418 5418 5418
5419 5410 5400 5391 5383 5376 5370 5364 5360 5357 5353 5351 5348 5345 5344 5343 5343 5344 5346 5348 5351 5354 5357 5361 5366 5372 5377 5382 5387 5392 5396 5399 5402 5404 5406 5408 5410 5412 5414 5416 5417 5416 5416